Wind_Speed
7 7 6 5 4 4 4 4 4 4 5 5 6 7 7 6 6 7 7 7 8 9 9 9 10 11 11 10 9 10 10 10 10 10 11 11 12 12 12 12 12 13 13 13 13 13 13 13 13
8 8 7 7 5 5 5 5 5 5 5 6 7 7 7 7 7 7 8 8 9 10 10 10 10 10 10 10 11 12 12 11 10 11 11 12 13 13 13 13 14 14 14 14 14 14 14 15 15
8 9 8 8 7 7 6 6 6 7 7 7 7 8 8 7 7 8 8 9 10 10 10 11 10 10 11 12 13 13 13 12 11 12 13 13 13 14 14 14 14 14 15 15 16 16 16 16 16
9 9 9 8 8 8 7 7 6 8 8 8 8 8 8 7 8 9 9 10 10 10 11 11 11 12 12 13 14 14 13 13 13 13 14 14 14 14 15 15 16 16 16 16 17 17 17 17 17
9 8 8 8 8 8 7 8 7 8 7 7 7 7 8 8 9 9 10 10 10 11 11 12 12 12 13 13 14 14 14 14 14 14 15 15 15 16 16 16 17 17 17 18 18 18 19 19 19
9 9 9 8 8 8 6 7 7 8 8 8 8 8 8 9 9 9 10 11 11 12 12 13 13 14 14 15 15 15 15 15 16 16 17 16 16 17 18 18 18 18 19 19 19 19 20 20 20
9 9 9 8 8 7 6 6 7 8 8 8 8 9 9 10 10 10 10 11 12 12 13 14 15 15 16 17 16 16 17 17 17 17 18 17 18 18 18 19 19 20 20 20 20 20 20 21 21
9 9 9 9 8 7 6 7 8 8 8 8 8 9 10 11 11 11 12 12 13 13 14 15 16 17 17 18 17 17 17 18 18 18 18 19 19 20 20 21 20 20 21 21 21 21 22 22 22
9 9 9 9 9 8 7 7 8 7 8 9 10 11 11 11 12 13 13 13 14 14 15 16 17 18 17 18 18 18 18 18 18 19 19 20 21 21 21 22 21 21 21 22 22 22 23 23 23
10 10 10 9 9 9 8 8 8 9 9 10 11 12 12 13 13 14 14 14 15 15 16 16 17 19 20 19 18 19 19 20 20 20 20 20 21 21 22 22 22 22 22 22 22 22 22 23 23
9 10 10 10 10 10 10 9 10 11 10 10 11 11 12 12 13 14 15 16 16 16 16 17 18 19 20 20 19 19 19 20 21 21 21 21 21 21 22 22 22 23 22 23 23 23 23 23 23
9 9 10 10 10 10 10 10 11 11 10 10 11 12 13 13 14 16 16 16 16 17 18 18 19 20 20 20 21 21 20 21 22 22 22 22 21 22 22 23 23 23 23 23 23 23 23 22 22
9 8 9 9 10 9 9 9 10 10 11 12 13 13 14 15 17 17 17 17 18 19 20 20 20 21 21 20 21 21 22 23 22 22 22 22 22 23 22 23 23 23 22 22 22 22 22 22 21
9 9 9 9 9 9 9 10 12 12 12 13 13 13 15 16 17 18 18 18 19 20 21 21 21 20 20 20 21 21 23 24 23 22 22 22 22 22 22 22 22 22 22 22 21 21 21 21 21
9 8 9 9 10 10 11 12 12 12 13 14 14 15 17 17 18 19 20 19 19 20 22 22 21 20 20 21 21 21 22 22 22 21 21 21 21 21 21 22 22 22 22 21 21 21 21 21 21
8 9 10 11 12 11 11 11 11 12 13 14 15 16 17 18 19 20 20 20 20 21 21 22 21 20 20 21 22 21 22 21 21 21 21 21 21 21 21 21 21 20 20 20 20 21 21 21 21
9 9 10 11 12 11 10 10 11 12 13 15 16 17 18 19 20 21 21 21 21 21 21 21 21 21 21 21 22 22 21 20 21 21 21 22 22 21 20 19 19 19 19 20 20 20 21 21 21
10 10 10 10 11 11 11 11 12 13 14 15 16 17 18 20 20 21 21 22 22 21 22 22 22 22 21 22 23 22 20 20 20 21 21 21 20 20 20 19 18 18 19 20 21 21 21 22 22
9 9 9 9 11 12 12 12 13 14 15 16 17 17 18 19 20 21 22 22 22 22 22 22 23 22 22 22 22 21 20 20 20 20 20 20 19 19 19 19 19 20 20 21 21 21 22 21 22
10 10 10 11 11 12 13 13 14 15 17 17 18 18 19 20 20 21 22 22 22 22 22 22 23 22 22 21 21 21 20 20 19 19 18 18 18 19 19 19 19 19 20 20 21 21 21 22 23
10 11 11 11 12 13 14 14 15 16 17 18 18 19 20 20 22 22 22 22 22 22 22 22 21 21 21 20 20 19 19 18 18 18 17 17 18 18 17 18 19 19 19 20 21 22 22 22 23
11 11 12 13 14 15 15 16 16 17 18 19 19 20 20 21 22 22 22 23 23 22 22 22 20 19 19 19 19 17 17 17 17 17 16 16 17 17 17 18 19 20 20 20 21 22 23 23 24
12 12 13 13 15 15 16 17 17 18 19 21 21 21 20 20 21 21 21 21 21 22 22 20 19 17 18 18 19 18 18 17 16 16 16 16 17 17 18 18 19 20 21 22 22 23 22 23 23
14 15 15 16 16 16 16 17 17 18 19 20 21 21 21 20 21 20 19 19 20 22 21 20 18 17 17 18 18 18 18 17 16 17 16 16 17 18 18 19 19 20 21 21 21 22 22 23 23
15 16 17 17 17 17 17 17 17 18 17 19 19 19 19 19 19 19 18 18 18 18 18 16 16 17 18 18 18 18 18 17 17 17 15 16 17 17 18 18 19 20 20 20 21 21 22 23 24
16 16 17 18 18 17 17 17 16 16 17 18 19 18 18 18 17 17 16 16 17 17 16 16 16 16 17 18 17 18 18 18 18 17 15 16 16 16 17 18 19 20 20 21 21 21 21 22 23
16 16 17 17 18 18 17 17 16 17 18 18 18 18 17 17 17 16 16 16 17 17 17 16 16 16 17 17 17 17 17 17 17 16 15 16 16 16 17 17 18 19 20 21 21 21 21 21 22
16 16 16 17 18 19 18 17 18 17 17 17 17 18 18 18 17 17 17 17 17 17 16 16 16 16 16 16 17 17 16 16 16 15 15 15 16 16 16 17 18 19 19 20 20 20 20 20 21
15 16 16 17 18 19 20 19 18 17 16 17 17 17 17 17 17 18 18 19 18 18 17 17 17 17 17 17 17 17 16 16 16 16 15 15 16 17 17 18 18 18 18 18 19 19 19 19 20
17 17 17 18 18 19 19 18 17 16 17 18 17 17 17 17 18 18 18 18 18 18 18 18 18 17 17 17 17 16 16 16 16 16 15 16 17 17 17 17 16 16 17 18 18 18 18 18 18
Wind_Direction
233 239 244 249 246 248 251 266 284 284 286 297 314 316 317 315 314 314 310 307 309 308 306 305 311 315 317 314 314 312 310 307 304 303 305 304 301 298 295 292 290 291 291 290 288 289 288 287 285
237 242 247 255 252 255 253 260 275 282 283 290 303 311 314 306 309 306 306 304 304 302 301 304 309 313 314 310 307 303 303 301 299 299 302 303 301 299 296 293 290 289 289 288 287 285 285 284 284
247 249 250 258 259 256 256 261 269 281 284 293 299 303 302 298 302 302 305 302 301 299 300 301 305 306 306 308 310 305 301 302 299 298 298 298 298 297 295 295 292 291 290 286 284 282 281 280 280
248 258 260 263 261 250 257 262 264 283 291 297 299 300 296 295 300 303 305 302 302 301 297 299 303 304 304 305 307 306 303 300 299 298 297 296 296 295 294 294 293 291 289 286 283 280 278 278 278
247 259 264 263 262 257 257 260 266 282 296 296 299 299 302 300 299 300 301 298 302 300 297 299 300 300 304 303 302 303 301 298 295 293 295 293 293 293 292 291 291 291 290 287 283 282 280 280 279
244 255 261 263 263 261 257 267 267 277 290 295 294 302 311 305 304 307 305 301 302 301 297 299 299 301 301 300 300 303 299 295 292 292 293 289 289 291 290 290 289 290 289 287 283 282 281 278 277
242 253 258 261 265 268 277 275 280 284 287 297 302 304 315 309 306 312 310 308 308 306 303 300 302 302 301 299 296 297 296 292 292 291 290 286 284 289 289 287 286 287 287 286 283 282 282 279 276
247 255 260 263 266 266 275 282 287 292 295 314 313 312 313 310 306 306 310 312 311 309 307 306 305 305 301 298 295 295 293 291 290 290 289 287 286 288 288 287 285 285 285 285 283 282 282 280 276
245 250 256 262 263 263 264 271 277 291 304 311 313 310 305 305 304 304 307 310 311 308 306 306 303 302 298 295 293 294 292 290 290 288 288 287 286 286 286 285 284 283 282 282 282 281 282 280 277
243 248 253 258 259 259 263 274 279 285 291 297 304 307 307 306 305 306 306 307 309 309 306 304 303 302 297 294 291 291 291 291 289 287 287 287 286 287 285 282 282 281 281 280 279 279 280 280 278
246 248 253 253 257 255 258 269 281 282 286 289 297 302 304 306 307 307 306 306 306 305 304 303 301 302 297 292 290 289 289 290 287 285 284 284 284 285 284 281 278 279 279 278 278 279 279 279 279
243 248 257 255 259 258 261 266 278 282 290 292 294 296 300 304 305 306 307 304 300 301 300 300 298 296 294 292 289 289 288 287 286 285 284 283 283 283 283 282 278 279 278 277 277 278 278 278 278
245 247 259 264 265 268 266 272 276 282 287 291 292 290 293 297 300 304 303 300 299 300 298 296 296 294 293 293 292 290 289 288 288 288 286 285 284 282 281 283 280 278 276 276 276 276 277 276 275
248 252 260 266 270 269 269 272 274 281 284 286 289 293 298 302 302 302 299 299 299 299 298 298 297 296 295 293 292 292 291 290 289 288 286 285 284 282 282 282 280 278 277 276 274 275 276 274 274
251 258 266 271 272 275 278 277 275 283 285 286 289 294 297 300 301 301 299 298 297 298 299 299 301 299 297 296 293 292 293 291 288 287 285 284 283 282 282 279 278 277 278 275 275 277 276 275 275
262 267 270 272 273 279 285 286 284 290 293 292 291 292 294 296 299 301 301 300 298 299 299 300 302 300 299 299 297 294 293 291 288 286 283 282 283 282 281 280 278 277 277 276 277 278 278 276 275
270 273 277 276 281 287 292 297 293 296 299 296 295 294 294 295 296 301 302 302 301 301 300 299 301 303 302 301 300 297 296 294 290 285 282 281 281 280 281 283 281 278 274 275 276 278 279 278 277
280 282 283 283 288 294 298 298 295 298 300 299 299 299 298 297 298 300 301 302 301 300 301 300 303 305 305 306 303 301 299 297 292 288 284 282 281 281 282 283 281 279 278 277 277 278 278 277 277
292 291 289 289 290 293 296 297 297 296 297 298 299 299 302 302 300 299 301 302 301 301 303 304 304 304 305 305 302 302 301 295 291 287 284 282 283 283 282 281 281 280 279 279 278 278 276 276 276
290 290 289 291 294 296 298 295 297 298 298 299 297 298 299 299 302 302 302 301 301 302 303 305 303 303 306 307 305 302 300 297 292 291 289 286 283 282 281 282 283 282 279 279 280 281 277 277 277
285 286 290 292 294 295 296 295 296 300 300 300 301 300 299 299 302 304 304 304 302 301 303 305 304 305 309 312 309 304 300 298 295 295 290 286 284 284 284 284 285 284 281 281 283 283 283 280 278
290 289 290 293 295 297 297 296 296 298 299 300 304 305 302 303 304 305 307 306 304 302 303 305 306 311 313 316 313 309 305 304 301 297 293 290 289 287 286 287 286 285 284 284 286 286 285 284 283
294 294 293 295 294 295 298 298 298 298 300 301 303 305 305 306 309 309 308 307 308 307 305 308 311 317 319 318 314 313 311 309 306 302 297 296 293 290 290 289 288 286 285 286 287 286 286 286 285
299 296 294 294 295 295 299 299 300 300 300 300 302 304 303 306 310 312 311 309 310 312 309 308 310 317 317 315 314 312 312 310 309 307 300 296 295 293 291 291 291 290 288 287 286 287 287 287 287
299 299 295 294 296 297 299 298 301 301 300 301 305 306 307 310 312 312 312 312 315 316 313 312 314 315 315 315 315 313 313 312 310 309 306 303 303 300 296 295 295 294 293 289 288 288 289 289 289
300 298 296 296 299 299 299 300 302 300 303 304 306 308 311 314 315 316 317 320 320 321 317 314 315 316 316 316 316 315 314 311 311 310 308 308 308 305 300 298 299 297 295 294 292 290 292 292 292
301 299 298 298 299 299 301 302 302 301 304 306 307 308 311 315 315 315 318 321 320 321 320 318 317 318 319 320 320 319 319 316 314 311 310 309 307 307 305 302 303 303 300 298 297 294 292 293 293
301 300 298 300 302 303 304 305 305 303 304 305 306 309 311 313 314 314 315 319 321 322 325 323 322 321 321 323 323 322 322 322 321 317 314 313 312 312 310 307 307 307 305 302 301 300 298 296 295
297 296 298 300 302 304 306 307 307 305 305 307 309 311 312 312 313 314 315 318 318 319 322 322 321 319 319 321 322 321 323 323 321 319 319 319 318 315 314 313 312 311 309 306 304 302 300 298 297
294 294 295 298 301 301 303 306 305 306 306 309 311 313 313 313 314 313 315 317 316 316 318 319 321 321 321 323 323 323 323 323 322 321 322 323 323 321 319 317 316 315 314 312 310 307 305 304 303
Height
5871 5872 5873 5874 5874 5874 5873 5872 5872 5872 5872 5872 5872 5872 5873 5873 5874 5876 5874 5872 5872 5872 5871 5871 5870 5869 5868 5867 5867 5866 5866 5865 5864 5864 5864 5864 5863 5863 5863 5863 5863 5863 5863 5863 5863 5863 5863 5863 5863
5871 5871 5873 5873 5873 5872 5872 5871 5871 5872 5872 5871 5871 5871 5871 5872 5872 5872 5871 5871 5870 5870 5870 5869 5868 5867 5867 5866 5865 5865 5864 5863 5862 5862 5861 5861 5861 5861 5860 5860 5860 5860 5860 5860 5860 5860 5860 5860 5860
5869 5870 5872 5872 5871 5871 5871 5871 5870 5871 5871 5870 5871 5870 5870 5870 5870 5870 5869 5869 5869 5869 5868 5867 5867 5866 5865 5864 5864 5863 5862 5861 5860 5860 5859 5859 5858 5858 5858 5857 5857 5857 5857 5857 5857 5857 5857 5857 5857
5869 5870 5871 5871 5870 5870 5870 5870 5869 5869 5869 5870 5870 5870 5869 5869 5869 5868 5868 5868 5867 5867 5866 5866 5865 5864 5863 5862 5861 5860 5859 5859 5858 5857 5857 5856 5856 5855 5855 5854 5853 5853 5853 5853 5853 5853 5853 5853 5853
5867 5868 5869 5869 5869 5869 5868 5868 5868 5868 5868 5869 5869 5868 5868 5868 5867 5867 5866 5866 5865 5865 5864 5864 5863 5862 5861 5860 5859 5858 5857 5856 5855 5855 5854 5854 5853 5852 5851 5851 5850 5850 5850 5849 5849 5849 5849 5849 5849
5866 5867 5868 5867 5867 5867 5867 5866 5866 5867 5867 5867 5867 5867 5867 5866 5866 5865 5864 5864 5863 5862 5862 5861 5860 5859 5858 5858 5857 5856 5855 5854 5853 5852 5851 5850 5849 5849 5848 5847 5847 5846 5846 5845 5845 5845 5844 5844 5844
5865 5866 5866 5866 5866 5866 5866 5865 5865 5865 5865 5866 5866 5865 5864 5864 5864 5863 5863 5862 5861 5860 5859 5858 5857 5856 5856 5855 5854 5853 5852 5851 5850 5849 5847 5846 5845 5845 5844 5843 5842 5842 5841 5841 5840 5840 5839 5839 5839
5863 5865 5864 5864 5865 5865 5865 5864 5864 5864 5864 5864 5864 5864 5863 5862 5862 5861 5860 5859 5858 5857 5856 5855 5854 5853 5852 5851 5850 5849 5848 5847 5846 5845 5843 5842 5841 5840 5839 5839 5838 5837 5836 5836 5835 5835 5835 5834 5834
5862 5864 5862 5863 5863 5864 5863 5863 5863 5863 5863 5863 5862 5862 5861 5860 5859 5859 5858 5857 5856 5855 5853 5852 5851 5850 5849 5848 5847 5845 5844 5843 5842 5841 5839 5838 5837 5835 5834 5834 5833 5832 5831 5831 5830 5830 5829 5829 5829
5860 5860 5861 5862 5862 5862 5861 5861 5861 5861 5861 5861 5860 5860 5859 5858 5857 5856 5855 5854 5853 5851 5850 5848 5847 5846 5845 5843 5842 5841 5840 5839 5838 5837 5835 5834 5832 5831 5830 5828 5828 5827 5826 5825 5825 5824 5824 5823 5823
5857 5858 5858 5859 5860 5860 5860 5860 5859 5858 5859 5859 5858 5857 5856 5855 5854 5853 5852 5850 5849 5848 5846 5845 5844 5842 5841 5839 5838 5837 5835 5834 5833 5832 5831 5829 5828 5826 5824 5823 5822 5821 5821 5820 5819 5819 5818 5818 5817
5856 5856 5857 5857 5858 5858 5858 5858 5857 5857 5857 5856 5855 5854 5853 5853 5851 5850 5848 5847 5846 5845 5843 5842 5840 5838 5837 5835 5834 5832 5831 5829 5828 5827 5825 5824 5822 5821 5819 5818 5816 5815 5815 5814 5814 5813 5813 5813 5812
5854 5855 5855 5856 5856 5857 5857 5856 5855 5854 5854 5853 5853 5852 5850 5849 5848 5846 5845 5844 5842 5841 5840 5837 5836 5834 5832 5831 5829 5827 5826 5824 5822 5821 5820 5818 5817 5815 5814 5812 5811 5809 5809 5809 5808 5808 5808 5808 5807
5853 5854 5854 5854 5855 5854 5854 5854 5853 5852 5851 5850 5850 5849 5847 5846 5844 5842 5841 5840 5839 5837 5835 5833 5831 5829 5827 5825 5824 5822 5820 5818 5816 5815 5813 5812 5811 5809 5808 5807 5805 5804 5804 5803 5803 5803 5802 5802 5802
5852 5853 5853 5853 5852 5852 5853 5852 5851 5849 5848 5847 5847 5845 5844 5842 5841 5839 5837 5836 5834 5833 5831 5828 5826 5824 5822 5820 5818 5816 5814 5812 5810 5808 5807 5806 5805 5803 5802 5801 5800 5800 5799 5798 5798 5798 5797 5797 5797
5851 5852 5852 5851 5850 5850 5851 5849 5848 5847 5846 5845 5844 5842 5841 5839 5837 5835 5833 5832 5830 5828 5826 5823 5821 5818 5816 5814 5812 5810 5807 5805 5804 5802 5801 5800 5799 5798 5797 5796 5795 5794 5793 5793 5793 5792 5792 5792 5792
5850 5850 5849 5849 5848 5847 5847 5846 5846 5844 5843 5842 5841 5839 5837 5835 5833 5832 5830 5827 5825 5823 5821 5818 5816 5813 5811 5808 5806 5803 5801 5799 5797 5796 5795 5794 5793 5791 5791 5791 5790 5789 5788 5788 5788 5788 5787 5787 5787
5849 5848 5847 5847 5846 5846 5845 5844 5843 5841 5840 5839 5837 5836 5834 5832 5830 5828 5826 5823 5821 5819 5816 5813 5811 5808 5805 5803 5800 5797 5795 5793 5791 5790 5789 5788 5787 5786 5786 5786 5785 5784 5783 5783 5782 5782 5782 5782 5782
5847 5846 5845 5845 5844 5843 5842 5841 5840 5839 5837 5836 5835 5833 5831 5828 5826 5823 5821 5819 5816 5814 5811 5808 5806 5803 5800 5797 5795 5792 5790 5788 5786 5784 5783 5783 5782 5781 5781 5781 5780 5779 5778 5778 5777 5777 5776 5776 5776
5845 5844 5844 5843 5842 5841 5840 5839 5838 5836 5835 5833 5831 5829 5827 5825 5822 5819 5816 5813 5811 5808 5806 5804 5801 5798 5795 5792 5789 5787 5784 5782 5781 5780 5778 5777 5777 5776 5776 5775 5775 5774 5773 5773 5772 5771 5771 5771 5770
5843 5843 5842 5841 5840 5839 5838 5837 5835 5834 5831 5830 5828 5826 5824 5821 5818 5815 5811 5809 5806 5804 5801 5799 5796 5793 5791 5787 5784 5781 5779 5777 5776 5775 5774 5773 5772 5772 5771 5770 5770 5769 5768 5768 5767 5766 5765 5764 5764
5841 5840 5839 5838 5837 5836 5836 5834 5833 5831 5829 5827 5824 5822 5819 5817 5814 5811 5808 5805 5802 5800 5797 5795 5792 5789 5786 5783 5780 5777 5776 5774 5773 5771 5771 5769 5768 5767 5766 5765 5765 5764 5763 5762 5761 5760 5759 5758 5757
5839 5838 5837 5835 5834 5833 5832 5831 5830 5827 5825 5823 5821 5818 5815 5813 5810 5807 5804 5801 5799 5796 5793 5791 5788 5785 5783 5780 5778 5775 5773 5771 5769 5768 5767 5765 5764 5763 5761 5760 5759 5758 5757 5756 5755 5754 5753 5752 5751
5836 5835 5834 5832 5831 5830 5829 5828 5826 5824 5822 5820 5817 5814 5811 5809 5806 5803 5800 5798 5795 5792 5789 5787 5785 5782 5780 5778 5775 5772 5770 5768 5766 5765 5763 5762 5760 5758 5756 5755 5754 5752 5751 5750 5749 5747 5746 5745 5744
5834 5833 5831 5829 5828 5827 5826 5824 5823 5820 5818 5816 5813 5810 5808 5805 5803 5800 5797 5795 5792 5789 5786 5784 5782 5779 5777 5774 5772 5769 5767 5765 5763 5761 5759 5757 5756 5754 5752 5750 5749 5747 5745 5744 5742 5741 5740 5739 5737
5830 5829 5828 5826 5825 5824 5822 5820 5819 5817 5815 5812 5810 5807 5805 5803 5800 5797 5794 5792 5789 5786 5783 5781 5779 5776 5774 5771 5768 5766 5764 5762 5760 5757 5756 5753 5751 5750 5748 5746 5744 5742 5740 5738 5736 5735 5733 5732 5730
5827 5825 5824 5823 5821 5820 5818 5817 5815 5813 5811 5809 5807 5804 5802 5799 5797 5794 5791 5789 5786 5783 5780 5777 5775 5773 5771 5768 5765 5763 5760 5758 5756 5754 5752 5750 5748 5745 5743 5741 5739 5736 5734 5732 5730 5728 5727 5725 5724
5824 5822 5821 5819 5817 5815 5815 5813 5812 5809 5807 5805 5803 5801 5798 5796 5793 5791 5788 5785 5782 5780 5777 5774 5772 5770 5768 5765 5763 5760 5757 5755 5753 5751 5748 5746 5744 5741 5739 5736 5734 5731 5728 5726 5724 5722 5721 5719 5717
5822 5820 5817 5816 5814 5812 5810 5811 5808 5806 5803 5801 5799 5797 5794 5792 5789 5787 5784 5781 5778 5776 5773 5771 5768 5766 5764 5762 5760 5757 5754 5752 5750 5748 5745 5743 5740 5738 5735 5732 5729 5726 5724 5721 5719 5717 5715 5713 5711
5817 5816 5814 5813 5811 5809 5807 5809 5804 5802 5800 5798 5796 5793 5791 5788 5786 5783 5780 5777 5775 5772 5770 5767 5765 5763 5760 5758 5756 5754 5751 5749 5746 5744 5742 5739 5737 5734 5730 5728 5725 5723 5720 5717 5715 5712 5710 5708 5706